sat.trackr.live / text

‹ back to catalog

STARLINK-31191

NORAD 58800 · 2024-012P

PAYLOAD ACTIVE UNKNOWN

§ Identity

Operator
Country
US
Launch date
2024-01-15
Launch site
AFETR
Launch vehicle
Mass (kg)
RCS (m²)

Purposes: comms

External: N2YO · Heavens-Above · Gunter

§ Orbital elements

Epoch: 2026-05-25T03:43:27.665184Z

Period
94.27 min
Inclination
43.0033°
Eccentricity
0.0001055
Mean motion
15.27576515 rev/d
Perigee alt
482.3 km
Apogee alt
483.8 km
Semi-major
6,861.2 km
B*
2.8798e-5
RAAN
93.1325°
Arg perigee
263.4833°
Mean anomaly
96.5898°
Rev number
13,293

§ Raw data

STARLINK-311911 58800U 24012P   26145.15518131  .00000530  00000+0  28798-4 0  99982 58800  43.0033  93.1325 0001055 263.4833  96.5898 15.27576515132936

JSON: /api/v1/satellites/58800 · /tle

For live sub-satellite position, see the globe view (requires WebGL).

§ Visibility from observer

Set your observer location to see the next 7 days of passes ≥ 10°. The values pass through the URL so the page stays shareable.

No JS? Fill the form by hand. The geolocation button needs JavaScript.